Location: Zagreb
(45.8000°N, 16.0000°E)
Time: 14:13:48
(UTC+02:00)

Transit 2A Rocket - Pass Details

Date: 17 August 2022
Orbit: 593 x 907 km, 66.7° (Epoch: 25 September)

Event Time Altitude Azimuth Distance (km) Brightness Sun altitude
Rises 18:49:39 0° 233° (SW) 2,964 8.8 11.3°
Reaches altitude 10° 18:52:07 10° 241° (WSW) 2,016 8.2 10.8°
Maximum altitude 18:56:20 38° 310° (NW) 934 6.4 10.1°
Drops below altitude 10° 19:00:24 10° 20° (NNE) 1,942 7.0 9.4°
Sets 19:02:45 0° 28° (NNE) 2,841 7.8 9.0°
